Date String (YYYY-MM-DD hh:mm:ss) UTC,Instrument flags,Ambient pressure (hPa),Sample flow (lpm),Bypass flow (lpm),Sample temperature (°C),Ambient temperature (°C),ASC tube jacket temperature (°C),LED temperature (°C),Box temperature (°C),Sample RH (%),Span deviation,Mass concentration (μg/m³),Mass concentration (μg/m³),Mass concentration (μg/m³)
DateTimeUTC,F1_M11,P_M11,Q1_M11,Q2_M11,T1_M11,T2_M11,T3_M11,T4_M11,T5_M11,U1_M11,ZSPAN_M11,X0_M11,X2_M11,X1_M11
2021-10-31 10:00:00,,0830.5,4.99,0.00,28.0,27.2,00.0,37.2,29.8,16.4,0000.0,0006.64,0002.20,0001.30
2021-10-31 10:01:00,,0830.5,5.00,0.00,28.0,27.1,00.0,37.2,29.7,16.4,0000.0,0006.91,0002.22,0001.31
2021-10-31 10:02:00,,0830.6,5.00,0.00,28.0,27.2,00.0,37.2,29.7,16.4,0000.0,0006.86,0002.15,0001.31
2021-10-31 10:03:00,,0830.6,4.99,0.00,28.0,27.2,00.0,37.2,29.7,16.4,0000.0,0007.63,0002.17,0001.32
2021-10-31 10:04:00,,0830.6,5.01,0.00,28.0,27.2,00.0,37.2,29.7,16.4,0000.0,0007.67,0002.19,0001.33
2021-10-31 10:05:00,,0830.6,4.99,0.00,28.0,27.1,00.0,37.2,29.7,16.5,0000.0,0007.71,0002.22,0001.33
2021-10-31 10:06:00,,0830.6,4.99,0.00,28.0,27.1,00.0,37.1,29.7,16.4,0000.0,0007.61,0002.24,0001.33
2021-10-31 10:07:00,,0830.6,5.01,0.00,27.9,27.1,00.0,37.1,29.7,16.4,0000.0,0007.23,0002.20,0001.33
2021-10-31 10:08:00,,0830.6,5.01,0.00,27.9,27.1,00.0,37.1,29.7,16.4,0000.0,0006.85,0002.20,0001.33
2021-10-31 10:09:00,,0830.6,5.00,0.00,27.9,27.1,00.0,37.1,29.7,16.4,0000.0,0007.24,0002.19,0001.34
2021-10-31 10:10:00,,0830.6,4.99,0.00,27.9,27.0,00.0,37.1,29.6,16.4,0000.0,0007.43,0002.19,0001.36
2021-10-31 10:11:00,,0830.6,5.00,0.00,27.9,27.0,00.0,37.1,29.6,16.4,0000.0,0007.41,0002.19,0001.36
2021-10-31 10:12:00,,0830.6,4.99,0.00,27.9,27.0,00.0,37.1,29.6,16.3,0000.0,0007.29,0002.16,0001.37
2021-10-31 10:13:00,,0830.6,5.02,0.00,27.9,27.0,00.0,37.0,29.6,16.3,0000.0,0007.35,0002.16,0001.37
2021-10-31 10:14:00,,0830.6,4.99,0.00,27.8,27.0,00.0,37.0,29.6,16.3,0000.0,0006.07,0002.06,0001.37
2021-10-31 10:15:00,,0830.6,5.00,0.00,27.8,27.0,00.0,37.0,29.6,16.3,0000.0,0005.88,0002.05,0001.38
2021-10-31 10:16:00,,0830.6,5.01,0.00,27.8,27.0,00.0,37.0,29.6,16.3,0000.0,0005.64,0002.02,0001.39
2021-10-31 10:17:00,,0830.6,5.00,0.00,27.8,27.0,00.0,37.0,29.5,16.3,0000.0,0005.65,0002.03,0001.41
2021-10-31 10:18:00,,0830.6,4.99,0.00,27.8,27.0,00.0,37.0,29.5,16.4,0000.0,0005.78,0002.07,0001.42
2021-10-31 10:19:00,,0830.7,5.00,0.00,27.8,27.0,00.0,37.0,29.6,16.4,0000.0,0005.62,0002.15,0001.44
2021-10-31 10:20:00,,0830.8,5.00,0.00,27.8,27.0,00.0,37.0,29.6,16.4,0000.0,0005.15,0002.19,0001.47
2021-10-31 10:21:00,,0830.7,5.01,0.00,27.8,27.0,00.0,37.0,29.6,16.4,0000.0,0004.77,0002.18,0001.48
2021-10-31 10:22:00,,0830.8,4.99,0.00,27.8,27.0,00.0,37.0,29.5,16.4,0000.0,0004.96,0002.16,0001.50
2021-10-31 10:23:00,,0830.7,5.00,0.00,27.8,26.9,00.0,36.9,29.5,16.4,0000.0,0006.35,0002.15,0001.53
2021-10-31 10:24:00,,0830.8,5.00,0.00,27.8,27.0,00.0,36.9,29.5,16.4,0000.0,0006.52,0002.14,0001.56
2021-10-31 10:25:00,,0830.8,5.01,0.00,27.8,27.0,00.0,36.9,29.6,16.4,0000.0,0007.01,0002.24,0001.58
2021-10-31 10:26:00,,0830.7,5.00,0.00,27.8,27.0,00.0,36.9,29.6,16.4,0000.0,0007.11,0002.29,0001.60
2021-10-31 10:27:00,,0830.8,4.99,0.00,27.8,27.0,00.0,36.9,29.6,16.5,0000.0,0007.24,0002.33,0001.60
2021-10-31 10:28:00,,0830.8,5.01,0.00,27.8,26.9,00.0,36.9,29.5,16.5,0000.0,0006.94,0002.30,0001.59
2021-10-31 10:29:00,,0830.8,4.99,0.00,27.8,26.9,00.0,36.9,29.5,16.5,0000.0,0006.60,0002.26,0001.59
2021-10-31 10:30:00,,0830.8,4.99,0.00,27.8,26.9,00.0,36.9,29.5,16.5,0000.0,0006.42,0002.21,0001.58
2021-10-31 10:31:00,,0830.8,5.01,0.00,27.8,26.9,00.0,36.9,29.5,16.6,0000.0,0006.10,0002.15,0001.57
2021-10-31 10:32:00,,0830.8,4.98,0.00,27.7,26.9,00.0,36.9,29.5,16.6,0000.0,0006.03,0002.12,0001.56
2021-10-31 10:33:00,,0830.8,4.99,0.00,27.7,26.9,00.0,36.9,29.5,16.6,0000.0,0005.64,0002.09,0001.54
2021-10-31 10:34:00,,0830.8,5.01,0.00,27.7,26.9,00.0,36.9,29.5,16.6,0000.0,0004.28,0002.07,0001.51
2021-10-31 10:35:00,,0830.8,5.00,0.00,27.7,26.9,00.0,36.8,29.5,16.6,0000.0,0004.05,0002.06,0001.49
2021-10-31 10:36:00,,0830.8,5.00,0.00,27.7,26.9,00.0,36.8,29.4,16.7,0000.0,0003.74,0001.98,0001.48
2021-10-31 10:37:00,,0830.8,4.99,0.00,27.7,26.8,00.0,36.8,29.4,16.7,0000.0,0003.61,0001.95,0001.47
2021-10-31 10:38:00,,0830.9,5.00,0.00,27.7,26.8,00.0,36.8,29.4,16.7,0000.0,0003.57,0001.98,0001.50
2021-10-31 10:39:00,,0830.9,5.01,0.00,27.7,26.8,00.0,36.8,29.4,16.8,0000.0,0003.56,0001.99,0001.52
2021-10-31 10:40:00,,0830.9,4.99,0.00,27.6,26.8,00.0,36.8,29.4,16.8,0000.0,0003.66,0002.05,0001.55
2021-10-31 10:41:00,,0830.9,5.01,0.00,27.6,26.8,00.0,36.8,29.4,16.8,0000.0,0003.59,0002.01,0001.56
2021-10-31 10:42:00,,0830.9,5.01,0.00,27.6,26.8,00.0,36.8,29.4,16.8,0000.0,0003.82,0002.06,0001.56
2021-10-31 10:43:00,,0830.9,4.98,0.00,27.6,26.7,00.0,36.8,29.3,16.8,0000.0,0003.92,0002.12,0001.59
2021-10-31 10:44:00,,0830.9,5.02,0.00,27.6,26.7,00.0,36.8,29.3,16.8,0000.0,0004.12,0002.18,0001.61
2021-10-31 10:45:00,,0830.9,4.99,0.00,27.6,26.7,00.0,36.8,29.3,16.8,0000.0,0004.29,0002.22,0001.63
2021-10-31 10:46:00,,0830.9,5.00,0.00,27.6,26.7,00.0,36.7,29.3,16.8,0000.0,0004.09,0002.28,0001.66
2021-10-31 10:47:00,,0830.9,5.00,0.00,27.6,26.7,00.0,36.7,29.3,16.8,0000.0,0004.23,0002.33,0001.67
2021-10-31 10:48:00,,0831.0,5.00,0.00,27.6,26.7,00.0,36.7,29.3,16.8,0000.0,0005.74,0002.31,0001.68
2021-10-31 10:49:00,,0831.0,5.00,0.00,27.6,26.7,00.0,36.7,29.3,16.8,0000.0,0005.93,0002.27,0001.69
2021-10-31 10:50:00,,0831.0,5.02,0.00,27.5,26.7,00.0,36.7,29.3,16.8,0000.0,0005.93,0002.26,0001.69
2021-10-31 10:51:00,,0831.0,5.00,0.00,27.5,26.7,00.0,36.7,29.3,16.8,0000.0,0005.83,0002.21,0001.68
2021-10-31 10:52:00,,0831.1,4.99,0.00,27.5,26.7,00.0,36.7,29.3,16.9,0000.0,0005.92,0002.21,0001.68
2021-10-31 10:53:00,,0831.0,4.99,0.00,27.5,26.7,00.0,36.7,29.3,16.9,0000.0,0005.83,0002.19,0001.68
2021-10-31 10:54:00,,0831.0,5.00,0.00,27.5,26.7,00.0,36.7,29.3,16.9,0000.0,0005.91,0002.17,0001.67
2021-10-31 10:55:00,,0831.0,5.00,0.00,27.5,26.7,00.0,36.7,29.3,16.9,0000.0,0005.87,0002.15,0001.65
2021-10-31 10:56:00,,0831.1,5.01,0.00,27.5,26.7,00.0,36.7,29.3,16.9,0000.0,0005.75,0002.14,0001.64
2021-10-31 10:57:00,,0831.0,5.00,0.00,27.5,26.7,00.0,36.6,29.3,16.9,0000.0,0005.62,0002.10,0001.64
2021-10-31 10:58:00,,0831.0,5.00,0.00,27.5,26.7,00.0,36.6,29.3,16.9,0000.0,0005.19,0002.04,0001.62
2021-10-31 10:59:00,,0831.0,5.00,0.00,27.5,26.7,00.0,36.6,29.3,16.9,0000.0,0003.78,0002.07,0001.62
